AirNav   Phillips 66 Aviation Fuel
 
 341 users online  

74S Anacortes Airport
Anacortes, Washington, USA

GOING TO ANACORTES?


FAA INFORMATION EFFECTIVE 03 JANUARY 2019

Location

FAA Identifier: 74S
Lat/Long: 48-29-54.6000N / 122-39-45.0000W
48-29.910000N / 122-39.750000W
48.4985000 / -122.6625000
(estimated)
Elevation: 241 ft. / 73.5 m (surveyed)
Variation: 21E (1985)
From city: 2 miles W of ANACORTES, WA
Time zone: UTC -8 (UTC -7 during Daylight Saving Time)
Zip code: 98221

Airport Operations

Airport use: Open to the public
Activation date: 12/1970
Control tower: no
ARTCC: SEATTLE CENTER
FSS: SEATTLE FLIGHT SERVICE STATION
NOTAMs facility: SEA (NOTAM-D service available)
Attendance: UNATNDD
Wind indicator: yes
Segmented circle: yes
Lights: ACTVT MIRL & REILS RY 18/36 - CTAF.
Beacon: white-green (lighted land airport)
Operates sunset to sunrise.
International operations: customs landing rights airport

Airport Communications

CTAF: 128.25
WX AWOS-3 at BVS (10 nm E): 121.125 (360-757-7767)
WX ASOS at FHR (14 nm W): 135.675 (360-378-8491)
WX AWOS-3 at OKH (15 nm S): 132.775 (360-675-8431)
WX AWOS-3 at ORS (16 nm NW): 135.425 (360-376-6045)
WX ASOS at BLI (18 nm N): PHONE 360-671-8688

Nearby radio navigation aids

VOR radial/distance  VOR name  Freq  Var
CVVr350/15.4PENN COVE VOR/DME117.2019E
HUHr167/27.0WHATCOM VORTAC113.0020E
YYJr096/35.4VICTORIA VOR/DME113.7017E
PAEr316/38.0PAINE VOR/DME110.6020E
YVRr134/39.7VANCOUVER VOR/DME115.9017E

 
NDB name  Hdg/Dist  Freq  Var  ID
SKAGIT/BAY VIEW264/9.924016EBVS -... ...- ...
FRIDAY HARBOR076/14.428417EFHR ..-. .... .-.

Airport Services

Fuel available: 100 JET-A
Parking: tiedowns
Airframe service: MAJOR
Powerplant service: MAJOR
Bottled oxygen: NONE
Bulk oxygen: NONE

Runway Information

Runway 18/36

Dimensions: 3015 x 60 ft. / 919 x 18 m
Surface: asphalt/grooved, in good condition
Weight bearing capacity: 
Single wheel: 12.5
Runway edge lights: medium intensity
Gradient: S
RUNWAY 18  RUNWAY 36
Latitude: 48-30.142760N48-29.676647N
Longitude: 122-39.621757W122-39.876798W
Elevation: 233.0 ft.241.0 ft.
Gradient: 0.3% UP0.3%
Traffic pattern: rightleft
Runway heading: 179 magnetic, 200 true359 magnetic, 020 true
Markings: basic, in fair conditionbasic, in fair condition
Visual slope indicator: 4-light PAPI on right (3.00 degrees glide path)4-light PAPI on left (3.00 degrees glide path)
Runway end identifier lights: yesyes
Obstructions: 22 ft. tree, 767 ft. from runway, 25:1 slope to clear20 ft. trees, 1158 ft. from runway, 46:1 slope to clear

Airport Ownership and Management from official FAA records

Ownership: Publicly-owned
Owner: PORT OF ANACORTES
100 COMMERCIAL AVENUE
ANACORTES, WA 98221
Phone 360-293-3134
Manager: JOHN DUMAS
BOX 297
ANACORTES, WA 98221
Phone 360-293-3134

Airport Operational Statistics

Aircraft based on the field: 50
Single engine airplanes: 48
Jet airplanes: 1
Helicopters: 1
    
Aircraft operations: avg 25/day *
44% transient general aviation
39% local general aviation
17% air taxi
* for 12-month period ending 31 December 2016

Additional Remarks

MILITARY ARRIVAL CORRIDOR N & W OF ARPT.
RWY 36 PREFERRED CALM WIND RY.
NOISE ABATEMENT PROCEDURES IN EFFECT; CTC AMGR 360-293-3134.
NO TOUCH & GO LDGS.

Instrument Procedures

There are no published instrument procedures at 74S.

Some nearby airports with instrument procedures:

KNUW - Whidbey Island Naval Air Station (Ault Field) (9 nm S)
KBVS - Skagit Regional Airport (10 nm E)
KFHR - Friday Harbor Airport (14 nm W)
KOKH - AJ Eisenberg Airport (15 nm S)
KORS - Orcas Island Airport (16 nm NW)
KBLI - Bellingham International Airport (18 nm N)
 
Loc | Ops | Rwys | IFR | FBO | Links
Com | Nav | Svcs | Stats | Notes
Area around 74S (Anacortes Airport)
 
Road maps at: MapQuest Bing Google
 
Aerial photo
WARNING: Photo may not be current or correct
Aerial photo of 74S (Anacortes Airport)
Photo by S. Paulay
Photo taken 04-Jul-2007

Do you have a better or more recent aerial photo of Anacortes Airport that you would like to share? If so, please send us your photo.

 
Sectional chart

 
Airport distance calculator
Flying to Anacortes Airport? Find the distance to fly.

From to 74S

Sunrise and sunset
Times for 21-Jan-2019
 Local
(UTC-8)
 Zulu
(UTC)
Morning civil twilight07:1915:19
Sunrise07:5315:53
Sunset16:5100:51
Evening civil twilight17:2601:26

Current date and time
Zulu (UTC)  21-Jan-2019 10:37:09
Local (UTC-8)  21-Jan-2019 02:37:09
 
METAR
74S SuperAWOS
210937Z AUTO 00000KT 10SM 04/03 A3005
KNUW 
9nm S 
210956Z AUTO 30007KT 10SM OVC032 08/03 A3011 RMK AO2 SLP195 T00780028 $
KBVS 
10nm E 
211015Z AUTO 00000KT 10SM BKN017 BKN022 OVC029 02/02 A3008 RMK A01
KFHR 
15nm W 
210953Z AUTO 00000KT 10SM OVC026 04/02 A3008 RMK AO2 SLP185 T00390022
KORS 
15nm NW 
211015Z AUTO 33004KT 10SM SCT018 OVC031 06/04 A3007 RMK AO2
KBLI 
19nm N 
210953Z AUTO 00000KT 6SM BR CLR M02/M03 A3006 RMK AO2 SLP188 I1000 T10171028
TAF
KNUW 
9nm S 
2108/2207 34005KT 9999 FEW005 SCT025 BKN040 BKN250 QNH3002INS TEMPO 2108/2114 BKN025 FM211500 11008KT 9999 SCT025 BKN040 BKN250 QNH3012INS FM220300 12011KT 9999 FEW025 SCT040 BKN250 QNH3030INS AUTOMATED SENSOR METWATCH 2108 TIL 2207 T01/2114Z T10/2122Z AMD 0810 FS30134
KBLI 
19nm N 
210726Z 2107/2206 VRB03KT 2SM BR BKN010 TEMPO 2108/2112 1/2SM FG FM211500 18007KT P6SM BKN020 FM211900 VRB03KT P6SM SCT030 SCT200 FM220500 17011KT P6SM SCT025 BKN150
NOTAMs
Click for the latest NOTAMs
NOTAMs are issued by the DoD/FAA and will open in a separate window not controlled by AirNav.

 

 
 

FBO, Fuel Providers, and Aircraft Ground Support

  
 Business Name 
 
 Contact 
 
 Services / Description 
 
Fuel Prices
 
Comments
  
 Port of Anacortes
360-293-3134
[web site]
[email]
Airport management, Aviation fuel, Aircraft parking (ramp or tiedown), Aerial tours / aerial sightseeing, Aircraft charters, Scheduled airline carrier

More info about Port of Anacortes
Phillips 66
100LL Jet A
SS $5.23 $3.37 
 Updated 07-Jan-2019
 
   write
SS=Self service
Update Fuel Prices
 

Would you like to see your business listed on this page?

 If your business provides an interesting product or service to pilots, flight crews, aircraft, or users of the Anacortes Airport, you should consider listing it here.  To start the listing process, click on the button below
 
Add a business
 

Other Pages about Anacortes Airport

www.portofanacortes.com/airport
 
Update a link
 
Copyright © AirNav, LLC. All rights reserved. Privacy Policy  Contact